Time,TemperatureF,DewpointF,PressureIn,WindDirection,WindDirectionDegrees,WindSpeedMPH,WindSpeedGustMPH,Humidity,HourlyPrecipIn,Conditions,Clouds,dailyrainin,SolarRadiationWatts/m^2,SoftwareType,DateUTC
2013-04-30 00:06:00,65.8,42.0,29.41,South,191,4.0,6.0,42,0.00,,,0.00,0,weatherlink.com 1.10,2013-04-30 05:06:00,
2013-04-30 00:21:00,66.0,42.0,29.41,SSW,200,3.0,7.0,42,0.00,,,0.00,0,weatherlink.com 1.10,2013-04-30 05:21:00,
2013-04-30 00:36:00,67.3,41.0,29.41,South,188,1.0,12.0,39,0.00,,,0.00,0,weatherlink.com 1.10,2013-04-30 05:36:00,
2013-04-30 00:51:00,67.0,41.0,29.41,SSW,200,3.0,13.0,39,0.00,,,0.00,0,weatherlink.com 1.10,2013-04-30 05:51:00,
2013-04-30 01:06:00,65.0,41.0,29.40,SSW,208,5.0,8.0,41,0.00,,,0.00,0,weatherlink.com 1.10,2013-04-30 06:06:00,
2013-04-30 01:21:00,63.8,41.0,29.40,SSW,200,4.0,9.0,43,0.00,,,0.00,0,weatherlink.com 1.10,2013-04-30 06:21:00,
2013-04-30 01:36:00,62.2,40.0,29.40,SSW,196,6.0,8.0,45,0.00,,,0.00,0,weatherlink.com 1.10,2013-04-30 06:36:00,
2013-04-30 01:51:00,61.3,40.0,29.40,South,184,3.0,7.0,46,0.00,,,0.00,0,weatherlink.com 1.10,2013-04-30 06:51:00,
2013-04-30 02:06:00,60.9,40.0,29.40,South,188,3.0,7.0,46,0.00,,,0.00,0,weatherlink.com 1.10,2013-04-30 07:06:00,
2013-04-30 02:21:00,61.8,39.0,29.40,SSW,198,7.0,9.0,43,0.00,,,0.00,0,weatherlink.com 1.10,2013-04-30 07:21:00,
2013-04-30 02:36:00,60.8,39.0,29.39,SSE,154,3.0,6.0,45,0.00,,,0.00,0,weatherlink.com 1.10,2013-04-30 07:36:00,
2013-04-30 02:51:00,62.5,38.0,29.39,South,182,2.0,8.0,41,0.00,,,0.00,0,weatherlink.com 1.10,2013-04-30 07:51:00,
2013-04-30 03:06:00,62.0,38.0,29.39,SSE,155,2.0,5.0,42,0.00,,,0.00,0,weatherlink.com 1.10,2013-04-30 08:06:00,
2013-04-30 03:21:00,64.0,38.0,29.39,South,188,8.0,16.0,38,0.00,,,0.00,0,weatherlink.com 1.10,2013-04-30 08:21:00,
2013-04-30 03:36:00,63.0,37.0,29.39,South,177,3.0,9.0,39,0.00,,,0.00,0,weatherlink.com 1.10,2013-04-30 08:36:00,
2013-04-30 03:51:00,62.9,37.0,29.39,South,178,4.0,9.0,39,0.00,,,0.00,0,weatherlink.com 1.10,2013-04-30 08:51:00,
2013-04-30 04:07:00,62.8,38.0,29.39,South,184,6.0,11.0,40,0.00,,,0.00,0,weatherlink.com 1.10,2013-04-30 09:07:00,
2013-04-30 04:22:00,59.5,37.0,29.43,North,360,1.0,15.0,44,0.00,,,0.00,0,weatherlink.com 1.10,2013-04-30 09:22:00,
2013-04-30 04:37:00,61.9,38.0,29.43,NNW,329,0.0,10.0,41,0.00,,,0.00,0,weatherlink.com 1.10,2013-04-30 09:37:00,
2013-04-30 04:52:00,57.5,38.0,29.43,NNW,329,0.0,0.0,48,0.00,,,0.00,0,weatherlink.com 1.10,2013-04-30 09:52:00,
2013-04-30 05:07:00,58.1,38.0,29.42,NE,40,0.0,0.0,47,0.00,,,0.00,0,weatherlink.com 1.10,2013-04-30 10:07:00,
2013-04-30 05:22:00,58.6,38.0,29.41,East,81,5.0,5.0,47,0.00,,,0.00,0,weatherlink.com 1.10,2013-04-30 10:22:00,
2013-04-30 05:37:00,57.5,38.0,29.41,ESE,103,3.0,6.0,49,0.00,,,0.00,0,weatherlink.com 1.10,2013-04-30 10:37:00,
2013-04-30 05:52:00,56.4,38.0,29.42,East,94,3.0,6.0,50,0.00,,,0.00,0,weatherlink.com 1.10,2013-04-30 10:52:00,
2013-04-30 06:07:00,59.4,38.0,29.45,NW,311,2.0,11.0,46,0.00,,,0.00,0,weatherlink.com 1.10,2013-04-30 11:07:00,
2013-04-30 06:22:00,57.0,39.0,29.47,NNW,342,3.0,13.0,52,0.00,,,0.00,0,weatherlink.com 1.10,2013-04-30 11:22:00,
2013-04-30 06:37:00,53.7,39.0,29.48,NNE,24,0.0,14.0,59,0.00,,,0.00,0,weatherlink.com 1.10,2013-04-30 11:37:00,
2013-04-30 06:52:00,51.7,40.0,29.50,North,360,6.0,10.0,64,0.00,,,0.00,0,weatherlink.com 1.10,2013-04-30 11:52:00,
2013-04-30 07:07:00,50.7,40.0,29.53,NNE,22,5.0,20.0,67,0.00,,,0.00,25,weatherlink.com 1.10,2013-04-30 12:07:00,
2013-04-30 07:22:00,50.6,40.0,29.55,North,9,3.0,13.0,67,0.00,,,0.00,54,weatherlink.com 1.10,2013-04-30 12:22:00,
2013-04-30 07:37:00,51.1,40.0,29.55,NNE,30,2.0,15.0,67,0.00,,,0.00,128,weatherlink.com 1.10,2013-04-30 12:37:00,
2013-04-30 07:52:00,51.8,41.0,29.56,NE,44,4.0,18.0,66,0.00,,,0.00,185,weatherlink.com 1.10,2013-04-30 12:52:00,
2013-04-30 08:07:00,52.4,41.0,29.57,ENE,61,7.0,17.0,65,0.00,,,0.00,188,weatherlink.com 1.10,2013-04-30 13:07:00,
2013-04-30 08:22:00,51.8,41.0,29.57,NE,45,6.0,16.0,66,0.00,,,0.00,176,weatherlink.com 1.10,2013-04-30 13:22:00,
2013-04-30 08:37:00,52.0,41.0,29.59,NNE,29,5.0,14.0,66,0.00,,,0.00,239,weatherlink.com 1.10,2013-04-30 13:37:00,
2013-04-30 08:52:00,52.9,41.0,29.60,East,80,7.0,17.0,64,0.00,,,0.00,332,weatherlink.com 1.10,2013-04-30 13:52:00,
2013-04-30 09:07:00,53.8,41.0,29.61,NE,43,4.0,19.0,63,0.00,,,0.00,431,weatherlink.com 1.10,2013-04-30 14:07:00,
2013-04-30 09:22:00,54.7,41.0,29.61,NE,42,7.0,17.0,60,0.00,,,0.00,506,weatherlink.com 1.10,2013-04-30 14:22:00,
2013-04-30 09:38:00,56.2,41.0,29.61,NE,42,6.0,20.0,58,0.00,,,0.00,603,weatherlink.com 1.10,2013-04-30 14:38:00,
2013-04-30 09:53:00,56.8,41.0,29.62,ENE,58,9.0,15.0,56,0.00,,,0.00,459,weatherlink.com 1.10,2013-04-30 14:53:00,
2013-04-30 10:08:00,56.5,41.0,29.62,NNE,21,7.0,16.0,57,0.00,,,0.00,413,weatherlink.com 1.10,2013-04-30 15:08:00,
2013-04-30 10:23:00,54.9,41.0,29.63,NE,52,7.0,13.0,60,0.00,,,0.00,306,weatherlink.com 1.10,2013-04-30 15:23:00,
2013-04-30 10:38:00,54.6,41.0,29.63,ENE,70,7.0,12.0,61,0.00,,,0.00,287,weatherlink.com 1.10,2013-04-30 15:38:00,
2013-04-30 10:53:00,54.8,41.0,29.63,NNE,30,5.0,12.0,60,0.00,,,0.00,288,weatherlink.com 1.10,2013-04-30 15:53:00,
2013-04-30 11:08:00,55.2,41.0,29.64,NE,40,7.0,13.0,59,0.00,,,0.00,327,weatherlink.com 1.10,2013-04-30 16:08:00,
2013-04-30 11:23:00,55.6,41.0,29.64,NE,53,7.0,11.0,58,0.00,,,0.00,397,weatherlink.com 1.10,2013-04-30 16:23:00,
2013-04-30 11:38:00,56.1,41.0,29.64,ENE,65,9.0,14.0,57,0.00,,,0.00,371,weatherlink.com 1.10,2013-04-30 16:38:00,
2013-04-30 11:53:00,57.2,41.0,29.64,NE,36,1.0,12.0,56,0.00,,,0.00,450,weatherlink.com 1.10,2013-04-30 16:53:00,
2013-04-30 12:08:00,57.0,41.0,29.64,NE,48,7.0,11.0,56,0.00,,,0.00,429,weatherlink.com 1.10,2013-04-30 17:08:00,
2013-04-30 12:23:00,57.4,41.0,29.64,ENE,73,8.0,14.0,55,0.00,,,0.00,325,weatherlink.com 1.10,2013-04-30 17:23:00,
2013-04-30 12:38:00,57.4,41.0,29.64,ENE,65,8.0,12.0,55,0.00,,,0.00,450,weatherlink.com 1.10,2013-04-30 17:38:00,
2013-04-30 12:53:00,58.7,41.0,29.64,ENE,60,7.0,9.0,53,0.00,,,0.00,452,weatherlink.com 1.10,2013-04-30 17:53:00,
2013-04-30 13:08:00,61.3,42.0,29.64,ENE,65,10.0,14.0,49,0.00,,,0.00,770,weatherlink.com 1.10,2013-04-30 18:08:00,
2013-04-30 13:23:00,62.6,42.0,29.65,ENE,75,4.0,12.0,47,0.00,,,0.00,860,weatherlink.com 1.10,2013-04-30 18:23:00,
2013-04-30 13:38:00,61.6,42.0,29.65,ENE,65,3.0,12.0,48,0.00,,,0.00,599,weatherlink.com 1.10,2013-04-30 18:38:00,
2013-04-30 13:53:00,62.9,42.0,29.65,NE,55,4.0,13.0,47,0.00,,,0.00,552,weatherlink.com 1.10,2013-04-30 18:53:00,
2013-04-30 14:08:00,63.4,42.0,29.65,ENE,68,3.0,11.0,45,0.00,,,0.00,854,weatherlink.com 1.10,2013-04-30 19:08:00,
2013-04-30 14:23:00,64.8,43.0,29.64,NE,54,4.0,12.0,45,0.00,,,0.00,691,weatherlink.com 1.10,2013-04-30 19:23:00,
2013-04-30 14:38:00,65.9,43.0,29.64,NE,50,1.0,18.0,43,0.00,,,0.00,756,weatherlink.com 1.10,2013-04-30 19:38:00,
2013-04-30 14:53:00,65.7,43.0,29.63,ENE,63,13.0,14.0,44,0.00,,,0.00,944,weatherlink.com 1.10,2013-04-30 19:53:00,
2013-04-30 15:08:00,68.1,43.0,29.63,ENE,65,7.0,13.0,41,0.00,,,0.00,884,weatherlink.com 1.10,2013-04-30 20:08:00,
2013-04-30 15:23:00,67.9,43.0,29.63,ENE,58,11.0,17.0,40,0.00,,,0.00,661,weatherlink.com 1.10,2013-04-30 20:23:00,
2013-04-30 15:38:00,68.4,43.0,29.63,NE,50,3.0,15.0,40,0.00,,,0.00,810,weatherlink.com 1.10,2013-04-30 20:38:00,
2013-04-30 15:53:00,68.3,42.0,29.63,ENE,69,7.0,17.0,39,0.00,,,0.00,701,weatherlink.com 1.10,2013-04-30 20:53:00,
2013-04-30 16:08:00,67.9,43.0,29.63,NE,50,6.0,17.0,40,0.00,,,0.00,385,weatherlink.com 1.10,2013-04-30 21:08:00,
2013-04-30 16:23:00,68.6,43.0,29.62,ENE,73,15.0,19.0,40,0.00,,,0.00,782,weatherlink.com 1.10,2013-04-30 21:23:00,
2013-04-30 16:38:00,70.0,43.0,29.61,NE,36,8.0,20.0,38,0.00,,,0.00,729,weatherlink.com 1.10,2013-04-30 21:38:00,
2013-04-30 16:53:00,69.5,43.0,29.62,NE,56,3.0,23.0,38,0.00,,,0.00,624,weatherlink.com 1.10,2013-04-30 21:53:00,
2013-04-30 17:08:00,69.9,42.0,29.62,NE,34,7.0,21.0,37,0.00,,,0.00,573,weatherlink.com 1.10,2013-04-30 22:08:00,
2013-04-30 17:23:00,70.3,43.0,29.64,NE,40,5.0,18.0,37,0.00,,,0.00,512,weatherlink.com 1.10,2013-04-30 22:23:00,
2013-04-30 17:38:00,69.8,43.0,29.64,ENE,59,2.0,11.0,38,0.00,,,0.00,223,weatherlink.com 1.10,2013-04-30 22:38:00,
2013-04-30 17:53:00,68.2,42.0,29.64,NE,51,3.0,15.0,39,0.00,,,0.00,350,weatherlink.com 1.10,2013-04-30 22:53:00,
2013-04-30 18:08:00,67.5,42.0,29.63,ENE,63,10.0,17.0,39,0.00,,,0.00,171,weatherlink.com 1.10,2013-04-30 23:08:00,
2013-04-30 18:23:00,66.5,41.0,29.63,NE,49,10.0,14.0,40,0.00,,,0.00,149,weatherlink.com 1.10,2013-04-30 23:23:00,
2013-04-30 18:38:00,65.9,41.0,29.63,NE,51,5.0,16.0,41,0.00,,,0.00,134,weatherlink.com 1.10,2013-04-30 23:38:00,
2013-04-30 18:53:00,65.5,41.0,29.64,NE,56,7.0,13.0,41,0.00,,,0.00,116,weatherlink.com 1.10,2013-04-30 23:53:00,
2013-04-30 19:08:00,65.0,41.0,29.64,NE,56,8.0,14.0,41,0.00,,,0.00,91,weatherlink.com 1.10,2013-05-01 00:08:00,
2013-04-30 19:23:00,64.4,40.0,29.66,NE,55,3.0,11.0,41,0.00,,,0.00,62,weatherlink.com 1.10,2013-05-01 00:23:00,
2013-04-30 19:38:00,63.6,39.0,29.66,North,9,6.0,11.0,41,0.00,,,0.00,46,weatherlink.com 1.10,2013-05-01 00:38:00,
2013-04-30 19:53:00,62.7,38.0,29.66,NE,46,7.0,11.0,41,0.00,,,0.00,30,weatherlink.com 1.10,2013-05-01 00:53:00,
2013-04-30 20:08:00,62.2,39.0,29.67,ENE,59,7.0,12.0,42,0.00,,,0.00,12,weatherlink.com 1.10,2013-05-01 01:08:00,
2013-04-30 20:23:00,61.4,39.0,29.68,ENE,71,4.0,10.0,43,0.00,,,0.00,0,weatherlink.com 1.10,2013-05-01 01:23:00,
2013-04-30 20:38:00,60.8,38.0,29.68,ENE,67,9.0,14.0,43,0.00,,,0.00,0,weatherlink.com 1.10,2013-05-01 01:38:00,
2013-04-30 20:53:00,59.9,37.0,29.68,NE,53,4.0,12.0,43,0.00,,,0.00,0,weatherlink.com 1.10,2013-05-01 01:53:00,
2013-04-30 21:08:00,59.4,37.0,29.70,NE,44,7.0,16.0,44,0.00,,,0.00,0,weatherlink.com 1.10,2013-05-01 02:08:00,
2013-04-30 21:23:00,59.4,37.0,29.70,NE,50,8.0,14.0,43,0.00,,,0.00,0,weatherlink.com 1.10,2013-05-01 02:23:00,
2013-04-30 21:38:00,59.4,35.0,29.70,ENE,69,10.0,14.0,41,0.00,,,0.00,0,weatherlink.com 1.10,2013-05-01 02:38:00,
2013-04-30 21:54:00,59.3,35.0,29.73,ENE,65,12.0,14.0,41,0.00,,,0.00,0,weatherlink.com 1.10,2013-05-01 02:54:00,
2013-04-30 22:09:00,59.1,35.0,29.71,NE,56,11.0,18.0,41,0.00,,,0.00,0,weatherlink.com 1.10,2013-05-01 03:09:00,
2013-04-30 22:24:00,58.8,34.0,29.72,NE,44,11.0,26.0,40,0.00,,,0.00,0,weatherlink.com 1.10,2013-05-01 03:24:00,
2013-04-30 22:39:00,59.0,33.0,29.74,NE,46,7.0,15.0,37,0.00,,,0.00,0,weatherlink.com 1.10,2013-05-01 03:39:00,
2013-04-30 22:54:00,57.8,27.0,29.75,ENE,64,4.0,17.0,31,0.00,,,0.00,0,weatherlink.com 1.10,2013-05-01 03:54:00,
2013-04-30 23:09:00,56.9,26.0,29.76,ENE,61,9.0,22.0,31,0.00,,,0.00,0,weatherlink.com 1.10,2013-05-01 04:09:00,
2013-04-30 23:24:00,56.6,25.0,29.79,ENE,67,9.0,17.0,30,0.00,,,0.00,0,weatherlink.com 1.10,2013-05-01 04:24:00,
2013-04-30 23:39:00,56.4,26.0,29.79,NE,56,8.0,19.0,31,0.00,,,0.00,0,weatherlink.com 1.10,2013-05-01 04:39:00,
2013-04-30 23:54:00,56.0,26.0,29.80,NE,47,10.0,16.0,32,0.00,,,0.00,0,weatherlink.com 1.10,2013-05-01 04:54:00,